Location: *
(41.0833°N, 73.4167°W)
Time: 13:05:02
(UTC+00:00)

Radarsat Rocket - Pass Details

Date: 22 October 2019
Orbit: 933 x 1492 km, 100.6° (Epoch: 17 November)

Event Time Altitude Azimuth Distance (km) Brightness Sun altitude
Rises 10:39:49 0° 17° (NNE) 3,993 7.3 -6.9°
Reaches altitude 10° 10:42:32 10° 20° (NNE) 2,954 6.7 -6.4°
Maximum altitude 10:49:06 72° 104° (ESE) 1,059 4.5 -5.2°
Drops below altitude 10° 10:55:00 10° 189° (S) 2,674 6.4 -4.1°
Sets 10:57:21 0° 191° (SSW) 3,591 7.0 -3.7°
